Temp
21 21 20 21 20 20 19 18 18 18 18 18 18 18 17 17 17 17 17 17 17 17 18 18 17 17 17 17 17 17 17 17 17 17 17 17 16 16 16 16 17 17 17
22 21 20 21 21 19 18 18 18 18 18 18 18 18 17 17 17 17 17 17 17 17 17 17 17 17 16 16 17 17 17 16 16 17 17 16 16 16 15 16 17 17 17
22 21 20 20 20 19 18 18 18 18 17 18 18 18 18 18 18 17 17 17 17 17 17 16 16 16 16 16 16 16 16 16 16 16 16 16 16 16 16 17 17 17 16
22 21 20 20 20 19 18 18 17 17 17 17 18 18 18 18 17 18 18 18 17 17 17 16 16 16 16 16 16 16 16 16 16 16 16 16 16 17 16 17 17 17 16
21 20 20 20 20 19 18 18 17 17 17 17 18 18 18 18 18 18 18 18 18 17 17 17 17 16 16 16 15 16 16 16 16 16 16 16 16 16 16 17 18 17 17
20 20 20 20 20 20 19 18 17 17 17 17 17 18 18 18 18 18 18 18 18 17 17 17 16 16 16 15 16 16 16 16 16 16 16 16 16 17 16 16 16 17 17
20 20 20 20 20 19 19 18 17 17 17 17 17 17 18 18 18 19 19 18 17 17 16 16 16 16 16 16 16 16 16 16 16 16 16 16 16 16 16 16 16 17 17
21 20 20 20 20 19 19 18 18 17 17 17 17 17 17 18 18 18 18 18 17 17 16 16 16 16 16 16 16 16 16 16 16 16 16 16 17 16 15 16 16 16 17
21 20 20 20 20 19 19 18 18 17 17 17 17 17 17 18 18 18 18 17 17 17 17 16 16 16 16 16 17 16 16 16 16 16 16 17 17 17 15 16 16 16 17
20 20 20 19 19 19 19 18 18 18 18 17 17 17 17 17 17 18 18 17 17 17 17 17 17 17 17 17 17 16 16 16 16 16 16 17 16 16 16 16 17 17 17
19 20 19 19 19 19 18 18 18 18 18 17 17 17 17 17 17 17 17 17 17 17 16 17 16 16 17 17 16 16 16 16 17 17 17 17 17 16 16 16 16 17 17
18 19 19 19 19 18 18 18 18 18 18 17 17 17 17 17 17 17 17 17 17 17 17 17 17 17 16 17 16 16 16 16 16 16 16 16 17 16 16 16 16 17 17
19 19 19 19 19 19 18 18 18 18 17 17 17 17 17 17 17 17 17 17 17 17 17 17 16 16 16 16 16 16 16 16 16 16 16 16 16 16 16 16 16 17 17
20 19 19 19 19 19 18 18 18 18 17 17 17 17 17 17 17 17 17 17 17 17 16 16 16 16 16 16 15 15 15 15 15 15 15 15 15 15 16 16 16 16 16
21 21 20 20 20 19 18 18 18 18 18 17 17 17 17 17 16 16 17 17 17 16 16 16 16 15 15 15 15 15 14 14 14 14 14 14 14 14 14 14 15 15 15
23 23 22 21 20 20 19 19 19 18 18 17 17 17 17 17 17 17 16 16 16 15 15 15 15 14 14 14 14 14 13 13 13 13 13 14 14 14 12 13 13 13 14
25 23 23 21 20 20 19 19 18 18 18 18 18 17 17 17 16 17 16 15 15 15 15 14 14 13 14 13 14 13 13 12 13 13 13 13 13 13 13 11 11 12 12
24 23 22 20 20 20 19 18 18 18 17 18 18 17 16 16 16 16 16 15 14 14 14 14 13 13 12 12 13 13 12 12 12 12 12 12 12 12 12 11 11 10 10
23 22 21 19 19 19 18 18 17 17 17 17 17 16 16 17 16 16 16 15 14 14 13 13 12 11 11 11 12 12 11 11 11 12 12 11 11 11 11 11 10 10 10
21 21 20 18 18 18 17 17 16 16 16 16 16 16 16 16 16 16 15 14 13 13 12 12 11 10 9 9 11 11 11 11 10 11 11 10 10 10 10 10 9 9 9
19 19 18 18 17 17 16 15 14 14 14 15 15 15 16 16 15 15 14 13 12 12 10 10 10 9 8 8 8 9 11 10 10 10 11 10 10 10 10 9 8 8 8
18 18 17 17 16 16 16 16 16 14 13 14 14 15 15 15 14 14 13 12 11 10 10 9 9 8 8 6 6 4 3 7 9 11 10 9 10 9 9 8 7 8 7
16 17 16 16 15 15 16 16 15 14 13 13 13 13 13 14 13 13 12 11 11 10 9 8 7 7 6 6 5 5 3 3 2 7 9 8 7 6 6 5 5 6 6
16 16 16 15 15 16 17 16 16 13 12 12 13 13 12 12 12 11 11 11 10 9 8 7 6 6 5 4 5 5 5 4 2 1 5 5 4 4 4 4 4 5 5
16 15 15 14 15 16 16 17 15 13 14 13 12 12 12 11 11 10 10 9 9 8 7 7 6 5 5 4 3 3 3 3 3 1 1 2 2 2 2 3 3 4 4
14 14 14 14 14 14 15 16 17 15 13 12 11 11 11 10 10 10 9 8 8 7 7 6 5 5 4 4 3 3 2 2 1 0 -1 0 0 1 1 1 2 3 4
Height
765 768 772 775 778 781 783 785 786 787 789 790 792 793 794 794 795 797 798 799 800 800 799 799 800 800 799 799 800 801 802 804 804 804 804 802 801 801 802 803 803 804 804
763 767 771 776 778 780 783 786 787 788 789 791 792 794 795 796 797 798 799 800 800 800 800 799 799 800 801 801 801 801 802 803 804 804 803 801 801 801 801 802 802 803 803
762 767 771 775 777 780 783 785 787 789 790 791 793 794 796 797 798 798 799 800 801 801 800 800 800 800 801 801 802 802 801 802 803 803 802 801 801 801 801 801 802 802 803
763 768 771 774 777 780 783 785 787 789 791 792 793 795 796 797 798 798 798 800 801 801 801 800 800 800 800 801 801 801 801 801 802 802 801 801 800 800 800 801 801 802 802
764 767 772 774 777 780 783 785 787 789 791 793 794 795 797 797 798 798 799 800 801 801 802 800 800 800 801 801 801 801 801 800 800 800 800 800 799 799 799 800 800 801 801
764 768 771 774 777 780 782 785 788 790 791 792 793 794 796 797 798 798 799 800 801 801 801 801 800 800 800 802 802 801 800 800 798 798 799 798 798 798 798 798 799 799 799
766 769 771 774 777 780 782 785 787 790 791 792 793 795 796 797 797 797 799 800 801 802 802 802 801 801 800 800 801 801 800 799 798 797 797 796 796 796 795 795 796 796 796
767 769 772 775 777 779 782 785 787 789 791 793 793 795 797 797 797 797 799 800 801 801 801 802 801 800 799 799 800 800 798 798 797 795 795 794 794 793 793 793 792 792 792
767 769 772 774 776 779 782 784 787 789 791 793 794 796 797 797 797 797 799 799 801 801 801 801 801 799 798 798 798 798 798 797 796 794 793 793 792 791 791 790 790 790 789
767 768 770 774 776 778 781 784 786 788 791 793 794 796 796 797 797 798 799 799 801 800 800 800 799 798 798 797 797 797 796 795 794 793 792 791 790 789 789 788 787 786 785
765 767 769 772 775 777 779 783 786 788 790 791 794 794 795 796 797 798 799 799 800 800 800 800 800 798 797 795 795 795 795 794 792 791 790 789 788 787 786 785 784 783 782
762 765 768 770 773 776 779 782 785 787 789 791 793 794 794 795 797 798 798 799 799 800 801 799 798 798 796 794 794 794 794 792 791 789 788 787 786 785 784 783 782 780 779
759 762 765 768 772 775 778 781 784 787 788 790 792 793 794 795 796 798 799 799 799 799 800 798 796 797 796 794 793 793 792 790 789 788 787 785 784 782 782 781 779 778 777
758 760 763 766 769 772 776 779 783 785 787 789 791 793 794 795 796 798 798 799 799 798 800 798 796 796 796 793 792 791 790 788 787 785 784 783 782 782 781 779 778 776 775
754 756 759 762 766 769 773 777 781 784 786 788 790 792 794 795 796 797 798 798 799 799 798 796 797 795 794 792 791 790 788 786 785 784 783 782 780 780 780 778 778 776 775
749 750 753 757 762 766 770 774 778 782 785 787 788 790 793 794 796 797 797 798 798 798 798 795 796 794 791 790 790 788 787 785 784 783 781 781 780 779 778 778 777 775 774
742 744 746 750 756 761 767 772 776 780 783 785 787 789 792 793 795 796 798 798 798 798 797 795 795 793 790 789 788 787 785 784 783 782 781 780 779 778 777 776 775 774 773
738 738 741 745 751 757 764 768 773 777 780 782 785 788 791 794 795 796 797 798 799 797 795 794 794 791 789 788 787 785 783 782 782 781 781 780 779 778 777 775 774 773 772
733 735 737 742 748 754 760 766 771 775 778 781 784 788 790 793 794 796 797 798 797 797 794 795 794 792 790 789 786 783 780 779 780 780 779 779 779 778 777 775 774 772 771
729 731 734 740 747 751 757 764 769 773 776 780 784 787 789 792 794 796 796 797 797 796 794 795 795 793 792 790 785 781 778 779 779 778 778 779 778 777 776 775 773 771 769
726 728 731 737 744 746 754 761 768 771 776 781 784 787 789 792 794 795 796 796 797 795 794 795 795 793 792 790 785 781 778 778 777 777 777 777 776 775 773 772 770 768 765
724 725 729 735 741 744 750 758 763 769 776 780 784 787 790 792 793 794 796 795 796 796 795 795 796 795 795 793 792 788 786 779 776 776 775 774 773 772 772 770 768 765 761
724 723 727 732 739 744 750 755 762 770 775 781 785 787 790 792 793 794 795 795 796 795 795 797 798 798 797 796 796 796 794 794 785 775 774 773 773 772 771 768 765 762 759
718 724 727 731 737 742 748 752 757 764 771 778 783 786 789 792 793 794 794 795 795 796 797 799 799 799 799 798 797 797 797 796 792 781 773 772 771 769 766 763 761 757 753
717 721 726 731 737 742 746 750 757 763 769 776 782 784 789 791 793 793 794 795 796 797 798 799 799 799 799 799 797 796 794 792 791 790 777 769 766 764 761 759 755 752 749
715 720 725 729 735 740 745 750 755 760 768 775 780 783 788 790 792 793 795 795 796 797 798 799 799 799 798 797 796 795 794 793 790 789 782 773 765 757 756 752 750 747 744
Wind_Speed
12 23 23 15 17 16 14 12 9 7 6 5 6 8 9 9 9 7 5 3 4 3 5 2 5 7 8 5 5 2 2 3 6 10 15 12 7 5 5 6 5 9 9
19 23 23 17 17 16 14 12 9 8 7 7 7 9 8 5 6 5 6 5 3 3 5 5 2 4 4 4 2 1 3 5 7 9 12 10 5 4 2 5 7 5 6
21 24 24 19 18 16 14 13 10 8 9 8 9 6 7 5 5 6 6 5 3 2 7 6 3 2 3 3 3 3 4 5 7 10 10 7 4 4 5 3 6 6 6
21 25 25 21 18 16 15 13 11 9 8 9 9 8 5 6 6 5 7 4 1 2 5 5 3 4 4 2 4 5 5 6 7 9 9 6 5 5 5 6 8 6 6
23 25 23 21 18 15 15 13 11 10 9 9 9 6 6 7 8 8 7 5 0 1 3 4 4 4 5 4 5 5 6 5 7 8 8 7 8 8 6 6 7 8 9
23 23 21 19 17 16 15 13 10 10 9 8 8 9 8 5 9 10 6 5 2 0 2 3 4 5 5 7 7 7 8 8 8 8 9 8 9 10 10 9 10 11 11
22 20 20 18 16 17 14 13 11 10 9 8 9 8 8 3 2 9 8 5 2 1 2 4 4 6 7 8 9 9 9 7 10 12 11 10 10 10 10 11 12 12 12
21 20 19 17 17 16 14 13 10 10 9 8 9 8 6 5 1 2 7 5 3 2 4 5 6 8 9 9 9 9 9 10 11 12 13 12 11 11 12 12 13 14 14
19 20 19 17 17 16 16 13 11 10 9 8 8 7 7 6 4 2 3 4 4 4 5 7 7 7 7 8 8 9 10 11 12 13 13 14 14 13 12 12 12 13 14
18 20 19 18 17 17 17 14 11 12 10 9 8 7 6 6 5 4 3 4 3 3 4 5 6 6 7 8 10 11 11 12 13 13 14 13 15 14 14 14 14 14 15
17 21 20 18 18 19 18 14 12 13 12 10 8 5 5 5 5 4 2 2 1 2 3 5 8 8 8 8 8 9 10 10 11 12 12 12 12 12 13 14 15 16 18
18 19 20 18 19 19 18 16 14 14 13 11 9 5 3 4 4 3 2 2 1 2 4 5 7 7 8 7 7 8 10 10 11 12 11 9 10 10 11 13 14 14 15
22 18 22 21 20 20 20 17 16 14 13 12 9 8 5 4 3 3 2 0 1 2 3 3 3 4 6 8 9 10 11 11 12 12 11 10 9 9 9 9 10 10 11
20 23 23 24 21 21 20 18 17 16 14 12 10 9 7 5 4 3 2 2 2 1 1 3 4 6 8 10 11 12 13 14 14 11 7 7 6 8 8 7 7 8 11
20 23 25 26 23 21 21 19 18 16 13 12 12 10 8 6 5 5 3 2 1 4 3 5 7 8 10 12 13 13 12 13 9 6 6 6 7 8 11 12 11 12 12
25 27 26 27 27 22 22 20 18 17 14 12 11 10 9 7 5 5 6 5 5 5 6 8 9 10 12 13 13 11 10 11 6 7 6 6 7 8 12 14 14 14 12
25 26 27 29 28 25 23 21 19 18 15 13 10 12 9 8 10 5 6 6 7 7 8 9 10 11 13 14 14 12 12 6 10 7 7 6 7 8 9 12 15 15 14
22 23 20 25 29 28 25 22 21 19 18 15 14 13 11 11 8 7 7 8 9 9 11 12 14 15 15 18 18 14 15 1 3 11 9 8 10 10 10 13 14 15 15
19 18 18 24 29 28 26 24 21 21 21 18 18 18 15 9 9 9 9 9 9 9 12 13 13 15 15 21 21 18 15 3 4 7 11 11 10 12 11 15 16 17 16
16 16 18 23 28 30 29 25 23 24 23 22 21 19 16 15 13 10 10 9 9 10 12 12 13 16 15 22 16 21 9 1 5 5 10 13 11 13 15 18 20 21 19
13 18 23 28 31 34 32 30 26 25 23 21 19 18 18 16 13 10 9 9 10 12 13 13 14 16 17 23 14 17 6 4 9 7 20 13 12 17 21 22 26 25 24
17 21 26 30 34 34 34 31 29 28 23 23 21 21 18 15 13 10 9 10 10 11 12 14 15 14 12 18 13 4 4 6 5 23 16 14 23 17 26 27 28 30 23
19 23 28 31 33 32 32 29 29 26 27 23 22 21 18 14 12 9 9 10 10 11 12 12 13 14 12 14 12 8 4 3 7 5 13 12 15 19 24 27 30 22 24
25 22 26 31 32 33 33 32 35 29 23 24 26 22 18 13 11 9 9 9 9 10 10 10 11 12 11 12 7 12 7 7 3 5 4 23 6 29 25 28 22 30 31
23 25 26 30 32 34 34 33 33 30 27 29 25 22 17 14 10 9 8 8 9 9 9 9 10 11 10 10 10 8 6 9 4 3 7 9 25 24 26 19 35 21 26
23 26 29 32 32 34 34 30 29 32 32 30 25 22 18 13 11 8 7 7 8 7 7 8 9 10 10 11 9 8 7 3 6 4 4 13 15 17 27 28 21 24 22
Wind_Direction
181 171 170 176 171 168 162 157 154 151 142 127 136 150 137 142 135 142 142 126 117 69 4 328 15 29 54 97 132 168 260 316 335 339 334 331 322 304 252 243 265 257 277
168 172 169 172 177 169 163 163 161 157 146 136 144 141 130 136 141 156 144 132 105 57 30 6 352 10 18 22 41 305 318 321 314 326 335 335 338 349 283 257 251 263 272
169 171 173 177 178 172 168 167 167 163 159 146 152 157 145 135 153 149 155 141 121 47 2 17 34 333 319 318 333 327 335 332 324 314 325 332 339 345 325 269 263 277 272
166 171 177 180 183 175 175 172 170 167 168 166 155 163 159 182 156 143 149 155 202 336 1 11 33 30 23 315 315 313 315 311 308 306 304 318 308 318 319 279 262 277 268
169 173 178 186 186 182 181 178 173 173 171 169 168 178 194 197 188 173 166 196 248 6 3 34 48 30 20 3 341 336 328 321 306 310 307 295 299 300 299 298 265 271 276
174 175 176 186 190 185 185 182 181 179 179 181 185 185 192 204 206 201 194 205 201 155 24 27 27 9 351 334 321 316 317 316 317 316 312 308 302 291 280 282 272 275 273
176 176 177 182 183 188 194 185 183 184 183 183 184 194 199 192 249 214 195 198 212 253 345 340 334 329 329 327 324 316 306 301 297 308 312 311 309 301 286 274 267 266 265
179 180 179 183 184 191 194 189 188 183 185 185 183 191 212 227 338 171 194 212 233 273 313 313 327 332 326 325 326 321 326 319 313 313 313 312 311 305 290 279 271 266 265
185 184 185 188 190 196 197 193 190 184 184 185 187 196 212 223 232 156 195 214 251 285 315 325 330 341 353 355 347 338 330 325 319 318 317 317 317 310 292 285 277 268 260
193 193 192 196 195 198 196 198 192 185 186 192 195 206 223 231 228 220 221 221 257 306 332 349 359 2 355 344 334 328 321 317 315 315 313 309 312 310 297 291 284 275 267
202 203 203 202 203 201 197 199 196 191 187 199 203 209 225 225 212 205 213 198 301 349 356 343 337 333 327 330 331 328 331 332 328 322 316 316 317 314 312 307 300 288 278
203 207 210 209 208 206 202 200 200 198 201 206 208 206 171 159 175 198 200 208 242 339 333 337 339 333 336 345 353 345 341 344 342 345 342 330 319 318 313 312 306 307 308
213 204 208 214 216 210 208 204 202 201 204 209 210 202 180 156 147 169 172 221 306 335 307 292 336 358 355 351 349 347 344 341 339 338 340 338 330 326 323 318 319 323 329
224 227 222 219 220 213 213 208 206 203 205 207 201 190 184 170 169 188 123 56 81 77 264 59 19 356 348 351 347 342 339 336 335 341 356 352 2 14 14 12 19 19 8
236 235 231 225 221 214 211 209 207 204 207 200 196 195 200 196 184 156 134 115 92 108 74 17 351 346 342 347 347 344 342 344 346 7 18 35 42 41 41 33 26 18 15
250 248 236 226 221 212 207 207 205 201 200 195 198 197 187 192 181 164 142 120 85 53 19 9 356 355 357 355 351 348 351 360 29 33 39 44 38 38 37 29 23 13 17
268 266 242 226 217 210 205 202 199 197 196 193 187 177 177 170 158 148 134 93 63 39 20 11 3 358 355 357 351 346 345 1 59 58 42 39 28 23 21 21 20 17 10
262 254 232 221 210 206 200 201 192 193 183 170 167 159 152 148 144 135 109 80 52 34 21 8 1 2 1 358 346 343 341 318 106 50 36 34 23 19 16 11 7 7 7
245 232 216 208 201 194 192 185 177 177 172 165 160 151 147 154 141 128 101 76 48 27 23 15 11 9 4 353 346 340 335 243 175 38 20 15 12 5 359 0 0 352 347
226 214 203 194 188 183 177 169 167 162 157 156 153 153 148 143 132 118 96 72 46 32 32 23 15 17 14 354 348 342 339 265 217 302 353 350 346 349 349 344 343 345 339
194 182 186 182 180 178 168 157 152 149 151 150 147 145 145 140 127 114 94 70 46 38 41 30 23 15 15 6 353 346 338 308 290 270 332 321 327 336 338 335 336 335 331
188 179 181 182 179 175 166 162 159 154 150 147 147 144 142 138 128 112 89 69 57 50 43 34 28 22 17 18 8 330 356 337 5 315 318 331 319 317 322 326 328 330 326
198 181 181 179 175 168 169 160 154 148 143 142 146 143 139 140 127 109 90 73 59 49 47 39 31 28 17 17 34 33 349 313 326 321 301 304 316 315 318 323 327 328 322
196 188 183 180 173 174 174 166 163 156 151 161 154 145 141 137 124 109 88 69 60 55 48 38 29 29 28 24 10 2 352 302 312 322 311 307 303 316 314 316 321 313 309
188 182 182 178 176 177 175 170 165 160 162 159 154 148 145 136 124 106 86 73 63 52 42 29 22 20 22 17 12 353 337 327 294 311 300 307 313 311 311 306 310 315 312
179 178 178 174 175 175 176 177 179 172 161 157 156 152 146 138 123 105 91 74 60 46 32 21 12 5 3 1 0 358 349 326 309 301 289 307 300 311 308 305 314 311 313